[[{"header":{"parameterUnit":"m.s-1","parameterCategory":1,"la1":30.2991,"la2":30.254,"lo1":-89.0895,"lo2":-89.0444,"dy":0.0017,"dx":0.0017,"nx":28,"ny":28,"refTime":"2025-08-30T03:00:00:Z","depth":0,"parameterNumber":2,"parameterNumberName":"U-component_of_WINDS"},"data":[0,0,0,0,0,0,0,0,0,0,0,0,0,0,0,0,0,0,0,0,0,0,0,0,0,0,0,0,0,0,0,0,0,0,0,0,0,0,0,0,0,0,0,0,0,0,0,0,0,0,0,0,0,0,0,0,0,0,-0.1206,-0.1206,0,-0.1192,-0.1192,-0.1191,-0.1233,-0.1234,-0.1235,-0.1237,-0.1219,-0.1217,-0.1216,0,0,0,0,0,0,0,0,0,0,0,0,0,-0.1265,-0.1263,-0.1206,-0.1206,-0.1206,-0.1192,-0.1192,-0.1191,-0.1233,-0.1234,-0.1236,-0.1237,-0.1219,-0.1217,-0.1215,0,0,0,0,0,0,0,0,0,0,0,0,0,-0.1244,-0.1263,-0.1206,-0.1225,-0.1226,-0.1192,-0.1192,-0.1191,-0.1232,-0.1234,-0.1236,-0.1238,-0.122,-0.1218,-0.1215,-0.1161,0,0,-0.1207,-0.1206,0,0,0,0,0,0,0,0,-0.1245,-0.1241,-0.1222,-0.1223,-0.1225,-0.1216,-0.1206,-0.1181,-0.1232,-0.123,-0.1237,-0.1239,-0.1216,-0.1214,-0.1207,-0.116,-0.1159,-0.1207,-0.1206,-0.1205,-0.1204,0,0,0,0,0,0,0,-0.1246,-0.1242,-0.12,-0.1222,-0.1224,-0.1232,-0.1231,-0.1201,-0.1212,-0.123,-0.1233,-0.1231,-0.1217,-0.1209,-0.1207,-0.1159,-0.1207,-0.1205,-0.1203,-0.1203,-0.1064,-0.1062,0,0,0,0,0,0,-0.1246,-0.1243,-0.1201,-0.12,-0.124,-0.123,-0.1229,-0.1217,-0.1213,-0.1214,-0.1229,-0.1233,-0.1213,-0.121,-0.1206,-0.1141,-0.1205,-0.1202,-0.1201,-0.1067,-0.1064,-0.1062,0,0,0,0,0,0,-0.1247,-0.1242,-0.1201,-0.1222,-0.1218,-0.1227,-0.1213,-0.1216,-0.1208,-0.1212,-0.1214,-0.122,-0.1214,-0.121,-0.1172,-0.1141,-0.1201,-0.1199,-0.1069,-0.1066,-0.1063,-0.1012,0,0,0,0,0,0,-0.1248,-0.1242,-0.1223,-0.1222,-0.1217,-0.1168,-0.1211,-0.1214,-0.1204,-0.1208,-0.1204,-0.1204,-0.1215,-0.1175,-0.1169,-0.1139,-0.1197,-0.1072,-0.1068,-0.1064,-0.1016,-0.1007,-0.0999,0,0,0,0,0,-0.125,-0.1209,-0.1221,-0.1216,-0.1193,-0.1166,-0.1163,-0.1178,-0.1201,-0.1181,-0.1183,-0.1205,-0.1146,-0.1171,-0.1164,-0.1133,-0.1074,-0.1069,-0.1064,-0.102,-0.1009,-0.1,0,0,0,0,0,0,-0.1205,-0.1209,-0.1223,-0.118,-0.1173,-0.1173,-0.1149,-0.1166,-0.1151,-0.1155,-0.1173,-0.1171,-0.1129,-0.1127,-0.1155,-0.1079,-0.1114,-0.1107,-0.1082,-0.1072,-0.1063,-0.1064,-0.1195,0,0,0,0,0,-0.119,-0.117,-0.1173,-0.1135,-0.1131,-0.114,-0.1129,-0.114,-0.1133,-0.113,-0.113,-0.112,-0.1099,-0.1086,-0.1067,-0.1016,-0.1014,-0.0991,-0.0982,-0.0976,-0.097,-0.094,-0.0929,-0.1046,-0.1046,-0.1046,0,0,-0.1159,-0.1159,-0.1145,-0.1126,-0.1122,-0.1098,-0.1137,-0.1111,-0.1093,-0.1126,-0.1089,-0.1088,-0.1079,-0.1034,-0.1014,-0.1031,-0.0937,-0.0969,-0.0964,-0.0962,-0.0934,-0.0923,-0.0913,-0.1042,-0.1043,-0.1043,0,0,-0.1091,-0.1089,-0.1056,-0.105,-0.1043,-0.1049,-0.1041,-0.1039,-0.104,-0.1004,-0.1026,-0.1005,-0.0969,-0.0961,-0.0952,-0.0878,-0.0896,-0.0871,-0.0827,-0.0798,-0.0789,-0.0781,-0.0753,-0.0743,-0.0865,-0.0865,-0.0865,0,-0.1053,-0.102,-0.1036,-0.1008,-0.0998,-0.1027,-0.0992,-0.0986,-0.0972,-0.0964,-0.0984,-0.0938,-0.0934,-0.0886,-0.0867,-0.086,-0.085,-0.0872,-0.0789,-0.0781,-0.0774,-0.0747,-0.0737,-0.0862,-0.0862,-0.0863,-0.0863,0,-0.0972,-0.0949,-0.0923,-0.0909,-0.0897,-0.0865,-0.0876,-0.086,-0.0872,-0.0875,-0.0837,-0.0833,-0.0813,-0.0802,-0.0813,-0.0755,-0.0765,-0.0787,-0.0822,-0.076,-0.0735,-0.0725,-0.0858,-0.0859,-0.086,-0.086,0,0,-0.0876,-0.0871,-0.0861,-0.0855,-0.0848,-0.0829,-0.0798,-0.0779,-0.0765,-0.0754,-0.0727,-0.0695,-0.0714,-0.0704,-0.0714,-0.0689,-0.0628,-0.0713,-0.0713,-0.0696,-0.056,-0.0544,-0.0532,-0.064,-0.0638,-0.0636,-0.0561,0,-0.0808,-0.0756,-0.0769,-0.0716,-0.0694,-0.0719,-0.0691,-0.0683,-0.0685,-0.0664,-0.0666,-0.0642,-0.067,-0.0664,-0.064,-0.064,-0.0601,-0.0646,-0.0613,-0.0612,-0.0614,-0.0519,-0.0502,-0.0431,-0.0551,-0.055,-0.0548,0,-0.0721,-0.0707,-0.0653,-0.0648,-0.0638,-0.0614,-0.0596,-0.0577,-0.0567,-0.057,-0.0557,-0.0572,-0.0539,-0.0574,-0.0527,-0.0558,-0.0545,-0.0542,-0.054,-0.0537,-0.0576,-0.0512,-0.0409,-0.0397,-0.0534,-0.0535,-0.0536,0,-0.0655,-0.0622,-0.0585,-0.0579,-0.0572,-0.0554,-0.055,-0.0542,-0.0529,-0.0513,-0.0504,-0.0484,-0.0473,-0.0456,-0.0464,-0.0489,-0.0415,-0.0451,-0.0414,-0.0414,-0.0398,-0.0399,-0.0289,-0.0391,-0.0391,-0.0391,-0.0391,0,-0.0577,-0.0542,-0.0555,-0.0532,-0.0493,-0.0507,-0.0467,-0.0466,-0.0458,-0.0434,-0.0454,-0.043,-0.0443,-0.0419,-0.0425,-0.0384,-0.0379,-0.0379,-0.0381,-0.0377,-0.0377,-0.0368,-0.0373,-0.0388,-0.0389,-0.0389,-0.039,0,-0.0496,-0.0504,-0.0464,-0.0461,-0.0459,-0.043,-0.0426,-0.0404,-0.0407,-0.0375,-0.0369,-0.0372,-0.0345,-0.0351,-0.0322,-0.0326,-0.0274,-0.0283,-0.0278,-0.0279,-0.0242,-0.0245,-0.0123,-0.0107,-0.0219,-0.0218,-0.0218,0,-0.0446,-0.042,-0.0413,-0.0398,-0.0393,-0.037,-0.0356,-0.0368,-0.0353,-0.0338,-0.0317,-0.0292,-0.0273,-0.0228,-0.0227,-0.0204,-0.0211,-0.017,-0.0208,-0.0204,-0.0209,-0.021,-0.0206,-0.0162,-0.0161,-0.016,-0.0159,0,-0.0354,-0.0359,-0.034,-0.032,-0.0304,-0.0289,-0.0277,-0.0263,-0.0274,-0.0255,-0.0228,-0.0213,-0.0183,-0.0157,-0.0135,-0.0129,-0.0145,-0.0147,-0.0137,-0.0133,-0.013,-0.0129,-0.0256,-0.015,-0.0151,-0.0152,-0.0152,-0.0153,-0.0287,-0.0264,-0.0255,-0.0232,-0.0223,-0.021,-0.0189,-0.0188,-0.0166,-0.0143,-0.0151,-0.0119,-0.0107,-0.008,-0.0071,-0.0045,-0.0061,-0.0047,-0.0043,-0.0039,-0.0034,-0.0135,-0.0041,-0.0042,-0.0042,-0.0042,-0.0042,0,-0.0195,-0.0191,-0.0169,-0.0151,-0.0132,-0.0149,-0.0135,-0.0117,-0.009,-0.0078,-0.0058,-0.0026,-0.0,0.0003,0.0028,0.0048,0.0042,0.0055,0.0054,0.0056,-0.0022,-0.0033,0.006,0.006,0.006,0.006,0.006,0.006,-0.0146,-0.0107,-0.011,-0.0067,-0.0062,-0.0032,-0.0022,-0.0009,0.0,0.0037,0.0058,0.006,0.007,0.0095,0.0119,0.012,0.013,0.0147,0.0145,0.0072,0.0061,0.0052,0.0042,0.0149,0.0149,0.0222,0.0222,0.0223]},{"header":{"parameterUnit":"m.s-1","parameterCategory":1,"la1":30.2991,"la2":30.254,"lo1":-89.0895,"lo2":-89.0444,"dy":0.0017,"dx":0.0017,"nx":28,"ny":28,"refTime":"2025-08-30T03:00:00:Z","depth":0,"parameterNumber":3,"parameterNumberName":"V-component_of_WINDS"},"data":[0,0,0,0,0,0,0,0,0,0,0,0,0,0,0,0,0,0,0,0,0,0,0,0,0,0,0,0,0,0,0,0,0,0,0,0,0,0,0,0,0,0,0,0,0,0,0,0,0,0,0,0,0,0,0,0,0,0,-2.5667,-2.5668,0,-2.5711,-2.5712,-2.5712,-2.5744,-2.5744,-2.5744,-2.5744,-2.5786,-2.5787,-2.5788,0,0,0,0,0,0,0,0,0,0,0,0,0,-2.561,-2.561,-2.5667,-2.5668,-2.5669,-2.5711,-2.5712,-2.5712,-2.5744,-2.5744,-2.5744,-2.5745,-2.5786,-2.5787,-2.5788,0,0,0,0,0,0,0,0,0,0,0,0,0,-2.5642,-2.5611,-2.5667,-2.5689,-2.5692,-2.5711,-2.5712,-2.5713,-2.5744,-2.5744,-2.5744,-2.5745,-2.5785,-2.5787,-2.5788,-2.5788,0,0,-2.5792,-2.5792,0,0,0,0,0,0,0,0,-2.564,-2.5644,-2.5686,-2.5688,-2.5691,-2.5723,-2.5707,-2.5738,-2.5743,-2.5724,-2.5744,-2.5745,-2.5764,-2.5767,-2.5775,-2.579,-2.5792,-2.5792,-2.5793,-2.5793,-2.5794,0,0,0,0,0,0,0,-2.5638,-2.5642,-2.5685,-2.5686,-2.5689,-2.5697,-2.5702,-2.5713,-2.5741,-2.5726,-2.5728,-2.5733,-2.5766,-2.5773,-2.5776,-2.5792,-2.5792,-2.5793,-2.5794,-2.5794,-2.5812,-2.5812,0,0,0,0,0,0,-2.5632,-2.564,-2.5683,-2.5686,-2.5666,-2.5697,-2.5703,-2.5712,-2.5741,-2.5746,-2.5732,-2.5734,-2.5771,-2.5774,-2.5777,-2.5781,-2.5793,-2.5795,-2.5795,-2.5812,-2.5812,-2.5812,0,0,0,0,0,0,-2.5631,-2.5636,-2.5682,-2.5664,-2.567,-2.5698,-2.5708,-2.5712,-2.572,-2.5747,-2.5751,-2.5735,-2.5771,-2.5776,-2.5786,-2.5783,-2.5795,-2.5796,-2.5813,-2.5812,-2.5812,-2.5787,0,0,0,0,0,0,-2.5629,-2.5635,-2.5636,-2.5664,-2.5671,-2.5689,-2.5707,-2.5713,-2.5723,-2.5725,-2.575,-2.5755,-2.5772,-2.5784,-2.5787,-2.5785,-2.5797,-2.5813,-2.5812,-2.5812,-2.5788,-2.5785,-2.5783,0,0,0,0,0,-2.5627,-2.5626,-2.5636,-2.5641,-2.5672,-2.5689,-2.5693,-2.5714,-2.5722,-2.5723,-2.574,-2.5754,-2.5783,-2.5785,-2.5789,-2.5786,-2.5813,-2.5813,-2.5812,-2.5789,-2.5786,-2.5783,0,0,0,0,0,0,-2.5595,-2.563,-2.5641,-2.5649,-2.5666,-2.5694,-2.5696,-2.571,-2.5724,-2.5726,-2.5751,-2.5756,-2.5764,-2.5776,-2.5778,-2.5789,-2.58,-2.58,-2.5781,-2.5778,-2.5776,-2.5773,-2.5798,0,0,0,0,0,-2.5589,-2.56,-2.563,-2.5634,-2.5642,-2.5667,-2.5675,-2.5691,-2.5709,-2.5716,-2.5734,-2.5751,-2.5764,-2.5772,-2.5785,-2.579,-2.5797,-2.5791,-2.5788,-2.5786,-2.5786,-2.5792,-2.579,-2.5809,-2.5809,-2.5809,0,0,-2.5576,-2.5596,-2.5602,-2.5628,-2.5643,-2.5654,-2.5673,-2.5684,-2.5692,-2.5717,-2.5729,-2.5743,-2.5763,-2.5771,-2.5776,-2.5782,-2.5782,-2.5786,-2.5784,-2.5785,-2.5791,-2.5789,-2.5787,-2.5809,-2.5809,-2.5809,0,0,-2.5558,-2.5575,-2.5581,-2.5597,-2.562,-2.5637,-2.5639,-2.5666,-2.5677,-2.5689,-2.5709,-2.5719,-2.574,-2.5755,-2.5765,-2.5756,-2.5769,-2.5759,-2.5747,-2.5752,-2.5751,-2.575,-2.5747,-2.5746,-2.5759,-2.5759,-2.5759,0,-2.5539,-2.5558,-2.5582,-2.5592,-2.5604,-2.5629,-2.5635,-2.5649,-2.5675,-2.5682,-2.5689,-2.5718,-2.5733,-2.5746,-2.5744,-2.5751,-2.5754,-2.5756,-2.5749,-2.5748,-2.5747,-2.5746,-2.5745,-2.5758,-2.5758,-2.5758,-2.5758,0,-2.5534,-2.5546,-2.5548,-2.5575,-2.5587,-2.5595,-2.5621,-2.5629,-2.5644,-2.566,-2.5673,-2.5693,-2.5712,-2.5716,-2.5729,-2.5731,-2.5734,-2.5745,-2.5756,-2.5744,-2.5743,-2.5742,-2.5756,-2.5756,-2.5757,-2.5757,0,0,-2.5495,-2.5538,-2.5538,-2.5552,-2.5581,-2.5591,-2.5601,-2.5621,-2.5628,-2.5646,-2.5655,-2.5674,-2.5685,-2.5696,-2.5711,-2.5716,-2.5709,-2.5726,-2.5727,-2.5723,-2.5714,-2.5707,-2.5706,-2.5719,-2.5719,-2.5719,-2.5713,0,-2.5483,-2.5504,-2.5527,-2.5539,-2.5552,-2.5577,-2.5586,-2.5605,-2.5621,-2.5634,-2.5652,-2.5665,-2.5678,-2.5685,-2.569,-2.5709,-2.5708,-2.571,-2.5728,-2.5728,-2.5722,-2.5705,-2.5697,-2.569,-2.5713,-2.5713,-2.5712,0,-2.5471,-2.549,-2.5504,-2.5535,-2.5541,-2.5548,-2.557,-2.5582,-2.5604,-2.5616,-2.563,-2.5647,-2.5659,-2.5669,-2.5686,-2.5687,-2.5696,-2.5706,-2.5706,-2.5709,-2.572,-2.5708,-2.5689,-2.5688,-2.5712,-2.5712,-2.5712,0,-2.5444,-2.5472,-2.5485,-2.5496,-2.5531,-2.5536,-2.5551,-2.5573,-2.5585,-2.5603,-2.5611,-2.5629,-2.564,-2.5654,-2.5676,-2.5681,-2.5691,-2.5703,-2.5702,-2.5701,-2.5702,-2.5702,-2.5685,-2.5707,-2.5707,-2.5707,-2.5707,0,-2.5428,-2.5436,-2.5474,-2.5481,-2.5491,-2.5518,-2.5527,-2.5544,-2.5565,-2.5576,-2.5598,-2.5608,-2.5637,-2.565,-2.5667,-2.568,-2.5684,-2.5694,-2.5698,-2.5692,-2.5691,-2.5698,-2.57,-2.5707,-2.5707,-2.5707,-2.5707,0,-2.5398,-2.5424,-2.544,-2.5473,-2.5481,-2.5487,-2.5516,-2.5524,-2.5543,-2.5557,-2.5562,-2.5591,-2.5608,-2.5632,-2.5656,-2.5667,-2.5678,-2.5685,-2.5671,-2.5674,-2.5672,-2.5672,-2.5659,-2.5659,-2.568,-2.568,-2.568,0,-2.5386,-2.5394,-2.5428,-2.5439,-2.5453,-2.5469,-2.5482,-2.5509,-2.5521,-2.5548,-2.5553,-2.5573,-2.559,-2.5617,-2.5639,-2.5658,-2.5666,-2.566,-2.5669,-2.5663,-2.5667,-2.5667,-2.5668,-2.5658,-2.5658,-2.5657,-2.5657,0,-2.5364,-2.5377,-2.5394,-2.5417,-2.5432,-2.5451,-2.547,-2.5477,-2.5509,-2.5521,-2.554,-2.5554,-2.558,-2.5599,-2.5622,-2.5636,-2.5652,-2.5655,-2.5656,-2.5649,-2.5642,-2.5647,-2.5666,-2.5655,-2.5655,-2.5655,-2.5655,-2.5655,-2.5343,-2.5352,-2.5379,-2.5398,-2.5416,-2.5435,-2.5446,-2.5467,-2.5483,-2.5508,-2.5523,-2.5542,-2.5565,-2.5597,-2.5612,-2.5627,-2.5633,-2.5634,-2.5634,-2.5634,-2.5633,-2.5639,-2.5631,-2.5631,-2.5631,-2.5631,-2.5631,0,-2.5323,-2.5342,-2.536,-2.5388,-2.5404,-2.5419,-2.5442,-2.5454,-2.5471,-2.5492,-2.551,-2.5533,-2.5552,-2.5577,-2.5598,-2.5606,-2.5614,-2.561,-2.561,-2.5614,-2.5625,-2.5623,-2.5604,-2.5604,-2.5604,-2.5604,-2.5604,-2.5604,-2.5314,-2.533,-2.5346,-2.5372,-2.539,-2.541,-2.5423,-2.544,-2.5458,-2.5483,-2.55,-2.5517,-2.554,-2.5564,-2.5582,-2.5589,-2.5596,-2.5591,-2.56,-2.561,-2.5613,-2.5615,-2.5613,-2.5592,-2.5592,-2.5587,-2.5587,-2.5587]}]]